FW2795 Weather Reports


Display with metric or nautical units.
time (UTC)temp
F
wind
direction
speed
MPH
gust
MPH
rain 1hr
in
rain 24hr
in
rain mn
in
humidity
%
barometer
mb
20260901014501 54 315 0.0 0.0 0.00 0.01 0.00 85 1020.7
20260901014000 54 315 0.0 0.0 0.00 0.01 0.00 82 1020.6
20260901013514 54 315 2.0 2.0 0.00 0.01 0.00 82 1020.5
20260901013004 55 315 0.0 1.0 0.00 0.01 0.00 82 1020.6
20260901012504 55 315 1.0 2.0 0.00 0.01 0.00 82 1020.8
20260901012004 55 315 1.0 2.0 0.00 0.01 0.00 82 1020.6
20260901011518 55 315 0.0 1.0 0.00 0.01 0.00 81 1020.6
20260901011003 55 315 1.0 2.0 0.00 0.01 0.00 81 1020.7
20260901010503 55 315 0.0 0.0 0.00 0.01 0.00 81 1020.5
20260901010017 55 315 0.0 1.0 0.00 0.01 0.00 81 1020.6
20260901005512 56 308 1.0 2.0 0.00 0.01 0.00 81 1020.5
20260901005011 56 302 1.0 2.0 0.00 0.01 0.00 80 1020.5
20260901004511 56 270 0.0 1.0 0.00 0.01 0.00 80 1020.7
20260901004010 56 270 0.0 1.0 0.00 0.01 0.00 79 1020.7
20260901003525 56 248 0.0 0.0 0.00 0.01 0.00 79 1020.6
20260901003000 56 238 1.0 2.0 0.00 0.01 0.00 79 1020.4
20260901002459 56 224 0.0 1.0 0.00 0.01 0.00 78 1020.6
20260901001958 57 224 0.0 1.0 0.00 0.01 0.00 77 1020.6
20260901001513 57 233 0.0 1.0 0.00 0.01 0.00 77 1020.6
20260901000958 57 232 1.0 2.0 0.00 0.04 0.00 76 1020.6
20260901000458 57 246 2.0 2.0 0.00 0.08 0.00 76 1020.7
20260831235957 57 267 1.0 2.0 0.00 0.08 0.00 76 1020.4
20260831235512 58 242 0.0 2.0 0.00 0.09 0.00 76 1020.5
20260831234956 58 251 1.0 2.0 0.00 0.09 0.00 76 1020.6
20260831234456 58 239 1.0 2.0 0.00 0.09 0.00 75 1020.4
20260831233956 58 244 2.0 3.0 0.00 0.09 0.00 76 1020.5
20260831233510 58 256 1.0 1.0 0.00 0.11 0.00 75 1020.5
20260831232955 58 266 1.0 2.0 0.00 0.11 0.00 75 1020.5
20260831232510 58 278 2.0 2.0 0.00 0.11 0.00 74 1020.3
20260831231959 58 259 1.0 2.0 0.00 0.12 0.00 74 1020.5
20260831231514 58 250 1.0 2.0 0.00 0.12 0.00 73 1020.3
20260831230958 59 243 1.0 2.0 0.00 0.12 0.00 73 1020.3
20260831230513 59 315 0.0 1.0 0.00 0.12 0.00 72 1020.3
20260831230003 59 315 0.0 1.0 0.00 0.12 0.00 72 1020.2
20260831225517 59 315 0.0 1.0 0.00 0.12 0.00 71 1020.3
20260831225007 59 315 0.0 0.0 0.00 0.12 0.00 71 1020.3
20260831224507 60 308 1.0 2.0 0.00 0.12 0.00 71 1020.2
20260831224007 60 306 1.0 2.0 0.00 0.12 0.00 70 1020.2
20260831223506 60 307 0.0 1.0 0.00 0.12 0.00 70 1020.2
20260831223006 60 309 1.0 2.0 0.00 0.12 0.00 70 1020.1
20260831222505 60 299 1.0 2.0 0.00 0.12 0.00 70 1020.3
20260831222005 60 304 1.0 2.0 0.00 0.12 0.00 70 1020.3
20260831221520 60 309 1.0 2.0 0.00 0.12 0.00 70 1020.1
20260831221004 61 302 1.0 2.0 0.00 0.12 0.00 69 1020.1
20260831220504 61 291 2.0 3.0 0.00 0.12 0.00 69 1020.2
20260831220003 61 286 2.0 2.0 0.00 0.12 0.00 69 1019.9
20260831215518 61 304 2.0 3.0 0.00 0.12 0.00 68 1020.0
20260831215003 61 280 2.0 4.0 0.00 0.12 0.00 68 1019.8
20260831214501 62 310 1.0 2.0 0.00 0.12 0.00 67 1019.9
20260831214001 62 312 2.0 3.0 0.00 0.12 0.00 67 1019.9
20260831213516 62 314 4.0 4.0 0.00 0.12 0.00 67 1019.9
20260831213000 62 314 2.0 4.0 0.00 0.12 0.00 67 1019.8
20260831212514 63 314 2.0 5.0 0.00 0.12 0.00 68 1019.8
20260831212014 63 313 4.0 5.0 0.00 0.12 0.00 68 1019.6
20260831211514 63 312 2.0 4.0 0.00 0.12 0.00 68 1019.8
20260831211013 63 331 2.0 4.0 0.00 0.12 0.00 68 1019.5
20260831210512 63 315 2.0 4.0 0.00 0.12 0.00 68 1019.6
20260831210011 63 315 1.0 2.0 0.00 0.12 0.00 68 1019.6
20260831205515 63 315 3.0 4.0 0.00 0.12 0.00 69 1019.6
20260831205015 63 305 2.0 3.0 0.00 0.12 0.00 68 1019.4
20260831204514 63 303 2.0 2.0 0.00 0.12 0.00 68 1019.4
20260831204003 63 307 1.0 2.0 0.00 0.12 0.00 68 1019.4
20260831203518 64 308 4.0 5.0 0.00 0.12 0.00 64 1019.2
20260831203012 64 300 2.0 4.0 0.00 0.13 0.00 64 1019.4
20260831202502 64 295 2.0 4.0 0.00 0.24 0.00 64 1019.2
20260831202002 64 313 4.0 5.0 0.00 0.26 0.00 64 1019.2
20260831201516 64 302 2.0 2.0 0.00 0.27 0.00 64 1019.3
20260831201001 64 298 1.0 3.0 0.00 0.34 0.00 63 1019.0
20260831200500 64 291 2.0 2.0 0.00 0.40 0.00 63 1019.1
20260831200000 64 295 2.0 2.0 0.00 0.44 0.00 63 1018.9
20260831195515 64 282 1.0 2.0 0.00 0.46 0.00 63 1018.9
20260831195014 64 273 2.0 2.0 0.00 0.47 0.00 63 1018.8
20260831194504 64 290 2.0 4.0 0.00 0.47 0.00 62 1018.9
20260831194019 64 274 2.0 2.0 0.00 0.47 0.00 62 1018.7
20260831193523 65 247 2.0 2.0 0.00 0.47 0.00 62 1018.7
20260831193006 65 253 1.0 2.0 0.00 0.47 0.00 62 1018.7
20260831192505 65 272 1.0 2.0 0.00 0.47 0.00 62 1018.4
20260831192005 65 282 2.0 3.0 0.00 0.47 0.00 62 1018.2
20260831191520 65 294 1.0 2.0 0.00 0.47 0.00 61 1018.2
20260831191005 65 284 1.0 2.0 0.00 0.47 0.00 61 1018.1
20260831190505 66 297 2.0 3.0 0.00 0.47 0.00 61 1018.1
20260831190004 66 305 2.0 4.0 0.00 0.47 0.00 60 1017.8
20260831185519 66 294 1.0 2.0 0.00 0.47 0.00 60 1017.9
20260831185004 66 287 2.0 2.0 0.00 0.47 0.00 60 1017.9
20260831184503 66 298 3.0 4.0 0.00 0.47 0.00 60 1017.6
20260831184003 67 289 4.0 8.0 0.00 0.47 0.00 60 1017.6
20260831183518 67 272 4.0 8.0 0.00 0.47 0.00 60 1017.8
20260831183002 67 273 2.0 4.0 0.00 0.47 0.00 60 1017.5
20260831182502 67 258 4.0 7.0 0.00 0.47 0.00 60 1017.6
20260831182016 68 283 2.0 3.0 0.00 0.47 0.00 60 1017.6
20260831181521 68 277 2.0 4.0 0.00 0.47 0.00 60 1017.4
20260831181020 68 275 4.0 8.0 0.00 0.47 0.00 60 1017.5
20260831180509 68 282 4.0 6.0 0.00 0.47 0.00 60 1017.4
20260831180009 69 294 3.0 4.0 0.00 0.47 0.00 60 1017.4
20260831175523 69 307 5.0 8.0 0.00 0.47 0.00 59 1017.1
20260831175013 69 292 4.0 6.0 0.00 0.47 0.00 58 1017.2
20260831174513 69 346 4.0 6.0 0.00 0.47 0.00 58 1017.1
20260831174012 69 317 4.0 5.0 0.00 0.47 0.00 57 1017.0
20260831173512 70 308 3.0 4.0 0.00 0.47 0.00 56 1017.0
20260831173012 71 271 4.0 6.0 0.00 0.47 0.00 55 1017.0
20260831172511 71 198 3.0 4.0 0.00 0.47 0.00 55 1017.0
20260831172026 70 247 3.0 4.0 0.00 0.47 0.00 56 1016.9
20260831171520 71 218 4.0 9.0 0.00 0.47 0.00 58 1016.8
20260831171005 70 210 4.0 5.0 0.00 0.47 0.00 59 1016.9
20260831170505 70 243 4.0 6.0 0.00 0.47 0.00 58 1016.6
20260831170004 71 248 4.0 8.0 0.00 0.47 0.00 57 1016.5
20260831165518 71 259 4.0 6.0 0.00 0.47 0.00 56 1016.5
20260831165015 72 260 5.0 8.0 0.00 0.47 0.00 55 1016.5
20260831164505 72 283 5.0 8.0 0.00 0.47 0.00 54 1016.5
20260831164005 72 305 4.0 6.0 0.00 0.47 0.00 53 1016.5
20260831163520 73 311 8.0 12.0 0.00 0.47 0.00 50 1016.4
20260831163004 73 307 3.0 7.0 0.00 0.47 0.00 50 1016.3
20260831162504 73 293 4.0 7.0 0.00 0.47 0.00 50 1016.4
20260831162003 73 277 4.0 5.0 0.00 0.47 0.00 50 1016.2
20260831161518 73 289 5.0 8.0 0.00 0.47 0.00 50 1016.1
20260831161002 72 317 5.0 8.0 0.00 0.47 0.00 50 1016.2
20260831160517 72 329 5.0 8.0 0.00 0.47 0.00 51 1016.0
20260831160007 73 354 6.0 9.0 0.00 0.47 0.00 52 1016.0
20260831155521 73 283 5.0 10.0 0.00 0.47 0.00 51 1016.0
20260831155020 74 310 4.0 5.0 0.00 0.47 0.00 49 1015.7
20260831154510 75 278 6.0 9.0 0.00 0.47 0.00 46 1015.7
20260831154010 75 283 4.0 7.0 0.00 0.47 0.00 44 1015.6
20260831153509 75 279 2.0 3.0 0.00 0.47 0.00 48 1015.6
20260831153023 75 273 4.0 5.0 0.00 0.47 0.00 49 1015.4
20260831152513 75 317 4.0 6.0 0.00 0.47 0.00 48 1015.4
20260831152012 76 285 4.0 8.0 0.00 0.47 0.00 48 1015.4
20260831151912 75 260 4.0 6.0 0.00 0.47 0.00 47 1015.4
20260831151011 76 297 4.0 8.0 0.00 0.47 0.00 47 1015.3
20260831150456 76 270 5.0 9.0 0.00 0.47 0.00 47 1015.3
20260831145840 75 282 7.0 9.0 0.00 0.47 0.00 48 1015.2
20260831145000 75 300 5.0 10.0 0.00 0.47 0.00 48 1015.2
20260831144459 76 317 4.0 8.0 0.00 0.47 0.00 45 1015.1
20260831144014 76 304 7.0 8.0 0.00 0.47 0.00 43 1015.2
20260831143519 75 321 4.0 7.0 0.00 0.47 0.00 44 1015.3
20260831143003 77 318 5.0 9.0 0.00 0.47 0.00 43 1015.2
20260831142518 76 324 4.0 8.0 0.00 0.47 0.00 45 1015.2
20260831142007 77 327 5.0 7.0 0.00 0.47 0.00 44 1015.0
20260831141522 78 327 6.0 9.0 0.00 0.47 0.00 43 1014.8
20260831141006 78 296 6.0 9.0 0.00 0.47 0.00 43 1014.8
20260831140506 78 278 5.0 9.0 0.00 0.47 0.00 43 1014.9
20260831140006 76 251 4.0 8.0 0.00 0.47 0.00 43 1014.7
20260831135520 76 234 4.0 8.0 0.00 0.47 0.00 47 1014.6
20260831135010 76 220 4.0 8.0 0.00 0.47 0.00 45 1014.6
20260831134459 77 210 6.0 8.0 0.00 0.47 0.00 44 1014.5
20260831134014 77 223 4.0 5.0 0.00 0.47 0.00 46 1014.4
20260831133513 77 199 8.0 12.0 0.00 0.47 0.00 48 1014.4
20260831133013 76 231 6.0 11.0 0.00 0.47 0.00 47 1014.3
20260831132513 75 241 3.0 4.0 0.00 0.47 0.00 46 1014.2
20260831132013 77 210 6.0 8.0 0.00 0.47 0.00 45 1014.2
20260831131527 76 289 4.0 9.0 0.00 0.47 0.00 49 1014.1
20260831131001 74 290 4.0 6.0 0.00 0.47 0.00 50 1014.3
20260831130501 74 308 4.0 6.0 0.00 0.47 0.00 50 1014.1
20260831130000 74 312 4.0 7.0 0.00 0.47 0.00 49 1014.1
20260831125530 75 334 7.0 11.0 0.00 0.47 0.00 46 1014.0
20260831125004 76 324 6.0 8.0 0.00 0.47 0.00 45 1013.8
20260831124503 75 322 4.0 8.0 0.00 0.47 0.00 50 1013.8
20260831124018 74 320 4.0 7.0 0.00 0.47 0.00 50 1013.6
20260831123507 75 335 5.0 8.0 0.00 0.47 0.00 47 1013.7
20260831123007 76 312 3.0 4.0 0.00 0.47 0.00 47 1013.8
20260831122506 76 296 4.0 7.0 0.00 0.47 0.00 47 1013.7
20260831122006 75 268 4.0 8.0 0.00 0.47 0.00 50 1013.7
20260831121521 75 282 3.0 5.0 0.00 0.47 0.00 50 1013.5
20260831121005 74 288 7.0 8.0 0.00 0.47 0.00 51 1013.4
20260831120520 74 304 7.0 8.0 0.00 0.47 0.00 52 1013.5
20260831120010 72 290 4.0 7.0 0.00 0.47 0.00 57 1013.5
20260831115509 72 274 4.0 6.0 0.00 0.47 0.00 56 1013.2
20260831115009 73 298 7.0 11.0 0.00 0.47 0.00 53 1013.3
20260831114509 73 335 6.0 8.0 0.00 0.47 0.00 51 1013.2
20260831114008 74 352 5.0 8.0 0.00 0.47 0.00 55 1013.2
20260831113508 71 1 6.0 9.0 0.00 0.47 0.00 60 1013.0
20260831113007 71 327 2.0 4.0 0.00 0.47 0.00 60 1013.1
20260831112522 72 328 4.0 7.0 0.00 0.47 0.00 58 1012.8
20260831112011 72 336 5.0 9.0 0.00 0.47 0.00 58 1012.6
20260831111511 71 318 6.0 8.0 0.00 0.47 0.00 61 1012.6
20260831111011 70 320 5.0 8.0 0.00 0.47 0.00 62 1012.7
20260831110510 70 291 5.0 8.0 0.00 0.47 0.00 61 1012.5
20260831110010 70 285 4.0 6.0 0.00 0.47 0.00 62 1012.7
20260831105509 70 272 7.0 11.0 0.00 0.47 0.00 61 1012.6
20260831105009 71 279 4.0 8.0 0.00 0.47 0.00 60 1012.5
20260831104508 72 291 6.0 8.0 0.00 0.47 0.00 55 1012.3
20260831104008 71 281 7.0 10.0 0.00 0.47 0.00 60 1012.2
20260831103508 70 299 4.0 8.0 0.00 0.47 0.00 62 1012.3
20260831103022 70 276 5.0 8.0 0.00 0.47 0.00 61 1012.3
20260831102512 70 283 5.0 8.0 0.00 0.47 0.00 60 1012.0
20260831102012 71 272 6.0 10.0 0.00 0.47 0.00 61 1012.1
20260831101512 70 296 4.0 5.0 0.00 0.47 0.00 62 1011.9
20260831101011 70 280 4.0 8.0 0.00 0.47 0.00 63 1011.9
20260831100511 69 263 4.0 7.0 0.00 0.48 0.00 63 1011.9
20260831100000 68 253 7.0 10.0 0.00 0.48 0.00 66 1011.7
20260831095515 67 298 7.0 9.0 0.00 0.48 0.00 68 1011.6
20260831095000 67 246 3.0 6.0 0.00 0.48 0.00 69 1011.8
20260831094514 67 291 4.0 6.0 0.00 0.48 0.00 70 1011.7
20260831094013 67 126 3.0 6.0 0.00 0.48 0.00 69 1011.7
20260831093513 68 300 4.0 4.0 0.00 0.48 0.00 66 1011.6
20260831093013 68 341 4.0 8.0 0.00 0.48 0.00 66 1011.4
20260831092512 68 313 2.0 4.0 0.00 0.48 0.00 70 1011.5
20260831091912 67 313 3.0 5.0 0.00 0.48 0.00 69 1011.3
20260831091412 68 325 4.0 5.0 0.00 0.48 0.00 70 1011.4
20260831090912 68 316 4.0 6.0 0.00 0.48 0.00 70 1011.2
20260831090311 67 329 6.0 9.0 0.00 0.48 0.00 70 1011.2
20260831085811 67 336 5.0 8.0 0.00 0.48 0.00 69 1011.0
20260831085310 69 320 4.0 6.0 0.00 0.48 0.00 69 1011.0
20260831084710 68 326 2.0 3.0 0.00 0.48 0.00 70 1010.8
20260831084210 67 331 4.0 7.0 0.00 0.48 0.00 70 1010.7
20260831083714 67 317 4.0 9.0 0.00 0.48 0.00 71 1010.7
20260831083119 67 318 5.0 8.0 0.00 0.48 0.00 72 1010.5
20260831082604 66 311 5.0 9.0 0.00 0.48 0.00 73 1010.4
20260831082118 65 267 4.0 5.0 0.00 0.48 0.00 74 1010.4
20260831081508 65 204 4.0 6.0 0.00 0.48 0.00 75 1010.2
20260831081008 64 183 4.0 7.0 0.00 0.48 0.00 77 1010.1
20260831080508 64 186 3.0 5.0 0.00 0.48 0.00 78 1010.0
20260831075907 63 216 4.0 7.0 0.00 0.48 0.00 81 1010.1
20260831075406 62 210 4.0 6.0 0.00 0.48 0.00 82 1009.9
20260831074906 62 266 2.0 3.0 0.00 0.48 0.00 82 1009.8
20260831074306 62 283 4.0 6.0 0.00 0.48 0.00 81 1009.8
20260831073805 62 323 3.0 6.0 0.00 0.48 0.00 81 1010.0
20260831073305 63 287 4.0 4.0 0.00 0.48 0.00 80 1009.7
20260831072720 63 242 3.0 4.0 0.00 0.48 0.00 80 1009.5
20260831072204 64 254 5.0 8.0 0.00 0.48 0.00 76 1009.6
20260831071704 64 191 3.0 4.0 0.00 0.48 0.00 78 1009.4
20260831071119 62 212 2.0 3.0 0.00 0.48 0.00 82 1009.4
20260831070604 62 235 3.0 5.0 0.00 0.48 0.00 84 1009.3
20260831070119 61 240 2.0 3.0 0.00 0.48 0.00 86 1009.3
20260831065518 60 245 2.0 2.0 0.00 0.48 0.00 90 1009.2
20260831065003 59 252 2.0 2.0 0.00 0.48 0.00 91 1009.2
20260831064503 58 261 3.0 4.0 0.00 0.48 0.00 93 1009.0
20260831063917 58 227 1.0 2.0 0.00 0.48 0.00 94 1008.9
20260831063402 57 221 3.0 5.0 0.00 0.48 0.00 94 1008.9
20260831062902 57 216 1.0 2.0 0.00 0.48 0.00 94 1008.8
20260831062401 56 225 1.0 2.0 0.00 0.48 0.00 94 1008.8
20260831061916 56 227 1.0 2.0 0.00 0.48 0.00 94 1008.8
20260831061421 56 223 2.0 2.0 0.00 0.48 0.00 94 1008.7
20260831060910 56 216 2.0 2.0 0.00 0.48 0.00 94 1008.7
20260831060410 56 212 1.0 1.0 0.00 0.48 0.00 94 1008.4
20260831055925 56 211 1.0 2.0 0.00 0.48 0.00 94 1008.5
20260831055359 56 203 1.0 2.0 0.00 0.48 0.00 94 1008.3
20260831054914 56 205 2.0 3.0 0.00 0.48 0.00 94 1008.1
20260831054403 56 218 2.0 3.0 0.00 0.48 0.00 94 1008.2
20260831053918 56 236 1.0 2.0 0.00 0.48 0.00 94 1008.3
20260831053402 55 227 2.0 3.0 0.00 0.48 0.00 94 1008.0
20260831052900 55 228 2.0 2.0 0.00 0.48 0.00 94 1007.8
20260831052400 55 243 3.0 4.0 0.00 0.48 0.00 93 1007.8
20260831051914 55 217 2.0 2.0 0.00 0.48 0.00 93 1008.0
20260831051414 55 213 1.0 2.0 0.00 0.48 0.00 93 1007.9
20260831050913 55 208 2.0 4.0 0.00 0.48 0.00 93 1007.6
20260831050413 56 228 1.0 2.0 0.00 0.48 0.00 93 1007.7
20260831045923 56 230 3.0 5.0 0.00 0.48 0.00 93 1007.6
20260831045413 56 233 2.0 2.0 0.00 0.48 0.00 93 1007.5
20260831044912 56 239 1.0 2.0 0.00 0.48 0.00 93 1007.5
20260831044412 56 244 2.0 3.0 0.00 0.48 0.00 92 1007.3
20260831043912 56 248 2.0 3.0 0.00 0.48 0.00 92 1007.3
20260831043412 56 231 1.0 2.0 0.00 0.48 0.00 92 1007.3
20260831042911 56 227 2.0 3.0 0.00 0.48 0.00 92 1007.1
20260831042411 56 227 2.0 3.0 0.00 0.48 0.00 92 1007.0
20260831041911 56 215 1.0 2.0 0.00 0.48 0.00 92 1007.1
20260831041410 56 214 3.0 4.0 0.00 0.48 0.00 92 1007.0
20260831040900 56 262 1.0 2.0 0.00 0.48 0.00 92 1007.0
20260831040400 56 260 1.0 2.0 0.00 0.48 0.00 92 1007.0
20260831035915 56 252 3.0 5.0 0.00 0.48 0.00 92 1007.2
20260831035359 56 277 2.0 5.0 0.00 0.48 0.00 92 1007.0
20260831034914 56 310 2.0 4.0 0.00 0.48 0.00 92 1007.2
20260831034413 56 305 4.0 5.0 0.00 0.48 0.00 92 1007.0
20260831033913 56 277 2.0 3.0 0.00 0.48 0.00 92 1007.0
20260831033412 56 315 1.0 2.0 0.00 0.48 0.00 92 1006.9
20260831032911 56 309 2.0 4.0 0.00 0.48 0.00 91 1006.7
20260831032411 56 302 3.0 5.0 0.01 0.48 0.00 91 1006.7
20260831031911 57 276 2.0 4.0 0.01 0.48 0.00 91 1006.7
20260831031410 57 262 2.0 3.0 0.01 0.48 0.00 91 1006.7
20260831030900 57 251 2.0 4.0 0.01 0.48 0.00 91 1006.9
20260831030359 57 249 4.0 5.0 0.01 0.48 0.00 90 1006.7
20260831025914 57 270 2.0 3.0 0.01 0.48 0.00 90 1006.8
20260831025414 57 273 4.0 6.0 0.01 0.48 0.00 90 1006.7
20260831024913 57 246 4.0 4.0 0.01 0.48 0.00 90 1006.8
20260831024413 57 265 2.0 3.0 0.01 0.48 0.00 89 1006.6
20260831023912 58 272 2.0 4.0 0.01 0.48 0.00 89 1006.7
20260831023412 58 254 2.0 4.0 0.01 0.48 0.00 89 1006.6
20260831022911 58 236 4.0 7.0 0.01 0.48 0.00 90 1006.4
20260831022411 58 248 3.0 5.0 0.00 0.47 0.00 90 1006.4
20260831021910 58 257 2.0 4.0 0.00 0.47 0.00 90 1006.4
20260831021410 58 235 4.0 5.0 0.00 0.47 0.00 90 1006.3
20260831020910 58 227 2.0 4.0 0.00 0.47 0.00 91 1006.2
20260831020409 59 250 4.0 7.0 0.00 0.47 0.00 92 1006.1
20260831015909 59 261 3.0 4.0 0.00 0.47 0.00 92 1006.2
20260831015409 59 257 4.0 5.0 0.00 0.47 0.00 92 1006.2
20260831014909 59 278 2.0 4.0 0.00 0.47 0.00 92 1006.0